Location: Albany
(35.0000°S, 118.0000°E)
Time: 11:20:31
(UTC-04:00)

ISS - All Passes

Search period start: 27 July 2016 00:00
Search period end: 06 August 2016 00:00
Orbit: 401 x 404 km, 51.6° (Epoch: 27 July)

Date Brightness Start Highest point End Pass type
(mag) Time Alt. Az. Time Alt. Az. Time Alt. Az.
27 Jul - 03:13:28 10° SSW 03:16:25 28° SE 03:19:22 10° E daylight
27 Jul - 04:50:03 10° WSW 04:52:46 23° NW 04:55:25 10° N daylight
27 Jul - 19:50:09 10° NNW 19:53:21 49° NE 19:56:35 10° ESE daylight
27 Jul - 21:27:39 10° WSW 21:29:58 17° SSW 21:32:19 10° SSE daylight
28 Jul - 02:21:00 10° SSW 02:23:19 17° SSE 02:25:37 10° ESE daylight
28 Jul - 03:56:43 10° WSW 03:59:57 50° NW 04:03:10 10° NNE daylight
28 Jul - 18:57:55 10° N 19:00:33 22° NE 19:03:12 10° ESE daylight
28 Jul - 20:33:55 10° W 20:36:52 29° SW 20:39:51 10° SSE daylight
29 Jul - 01:29:01 10° S 01:30:06 11° SSE 01:31:11 10° SE daylight
29 Jul - 03:03:44 10° SW 03:07:03 70° SE 03:10:21 10° NE daylight
29 Jul - 18:07:07 10° NE 18:07:49 11° NE 18:08:32 10° ENE visible
29 Jul - 19:40:35 10° WNW 19:43:51 58° SW 19:47:09 10° SE daylight
29 Jul - 21:20:29 10° SSW 21:20:53 10° SSW 21:21:16 10° SSW daylight
30 Jul - 02:10:58 10° SSW 02:14:04 34° SE 02:17:07 10° ENE daylight
30 Jul - 03:47:53 10° W 03:50:19 19° NW 03:52:42 10° N daylight
30 Jul - 18:47:40 10° NW 18:50:55 62° NE 18:54:13 10° SE daylight
30 Jul - 20:25:33 10° WSW 20:27:38 15° SSW 20:29:44 10° S daylight
31 Jul - 01:18:26 10° SSW 01:20:58 20° SSE 01:23:29 10° E daylight
31 Jul - 02:54:22 10° WSW 02:57:31 40° NW 03:00:38 10° NNE daylight
31 Jul - 17:55:14 10° N 17:58:05 27° NE 18:00:58 10° ESE visible
31 Jul - 19:31:41 10° W 19:34:29 25° SW 19:37:19 10° SSE daylight
01 Aug - 00:26:14 10° S 00:27:46 13° SSE 00:29:17 10° SE daylight
01 Aug - 02:01:18 10° SW 02:04:39 88° SE 02:07:56 10° NE daylight
01 Aug - 17:03:43 10° NNE 17:05:20 13° NE 17:06:58 10° E visible
01 Aug - 18:38:13 10° WNW 18:41:26 47° SW 18:44:41 10° SE daylight
02 Aug - 01:08:28 10° SW 01:11:40 40° SE 01:14:48 10° ENE daylight
02 Aug - 02:45:47 10° W 02:47:49 15° NW 02:49:50 10° NNW daylight
02 Aug - 17:45:11 10° NW 17:48:29 79° NE 17:51:48 10° SE visible
02 Aug - 19:23:30 10° WSW 19:25:17 14° SSW 19:27:05 10° S daylight
03 Aug - 00:15:52 10° SSW 00:18:35 22° SSE 00:21:16 10° E daylight
03 Aug - 01:52:02 10° WSW 01:55:03 32° NW 01:58:02 10° NNE daylight
03 Aug - 16:52:35 10° NNW 16:55:36 34° NE 16:58:39 10° ESE visible
03 Aug - 18:29:26 10° W 18:32:05 22° SSW 18:34:45 10° SSE visible
03 Aug - 23:23:31 10° S 23:25:24 14° SSE 23:27:16 10° ESE daylight
04 Aug - 00:58:51 10° SW 01:02:11 74° NW 01:05:28 10° NE daylight
04 Aug - 16:00:42 10° NNE 16:02:49 16° NE 16:04:56 10° E visible
04 Aug - 17:35:52 10° WNW 17:39:00 39° SW 17:42:09 10° SSE visible
05 Aug - 00:05:57 10° SW 00:09:13 49° SE 00:12:27 10° ENE daylight
05 Aug - 01:43:49 10° W 01:45:18 12° NW 01:46:47 10° NNW daylight
05 Aug - 16:42:42 10° NW 16:46:00 83° SW 16:49:20 10° SE visible
05 Aug - 18:21:28 10° SW 18:22:53 12° SSW 18:24:20 10° S visible
05 Aug - 23:13:17 10° SSW 23:16:09 26° SE 23:19:00 10° E daylight
